This demonstration page uses our WeatherBlox Daily Observations layout. Learn more.

Left ArrowRight Arrow

39.51506, -84.39828

Hourly Observations for September 10, 2015

Temp ( °F °C ) Dew Point ( °F °C ) Humidity (%) Winds ( mph kmh ) Pressure ( in mb ) Visibility ( mi km ) Precip ( " mm )
12:15 am 00:15 Cloudy 72 22.3 65 18.6 80 80 NNE 5 7 29.91 1013 10 16.0934 0 0
12:35 am 00:35 Cloudy 71 21.6 64 18 80 80 NNE 3 6 29.91 1013 10 16.0934 0 0
12:55 am 00:55 Cloudy 71 21.6 64 17.8 79 79 N 5 7 29.91 1013 10 16.0934 0 0
1:15 am 01:15 Cloudy 70 21.2 64 17.7 81 81 NNE 6 9 29.91 1013 10 16.0934 0 0
1:35 am 01:35 Cloudy 69 20.8 63 17.4 81 81 NNE 5 7 29.91 1013 10 16.0934 0 0
1:55 am 01:55 Cloudy 69 20.8 63 17.3 80 80 NNE 6 9 29.91 1013 10 16.0934 0 0
2:15 am 02:15 Cloudy 69 20.8 63 17.4 81 81 NNE 6 9 29.91 1013 10 16.0934 0 0
2:35 am 02:35 Cloudy 69 20.8 64 17.5 82 82 N 5 7 29.91 1013 10 16.0934 0 0
2:55 am 02:55 Cloudy 69 20.8 64 17.6 82 82 N 5 7 29.91 1013 10 16.0934 0 0
3:15 am 03:15 Cloudy 69 20.8 64 17.5 82 82 NNE 3 6 29.91 1013 10 16.0934 0 0
3:35 am 03:35 Mostly Cloudy 69 20.8 64 17.7 83 83 NNE 3 6 29.88 1012 10 16.0934 0 0
3:55 am 03:55 Clear 69 20.8 64 17.8 83 83 N 5 7 29.88 1012 10 16.0934 0 0
4:15 am 04:15 Clear 69 20.8 64 18 84 84 NE 3 6 29.88 1012 10 16.0934 0 0
4:35 am 04:35 Clear 69 20.8 64 18 84 84 NNE 5 7 29.88 1012 10 16.0934 0 0
4:55 am 04:55 Clear 69 20.8 64 18 84 84 Calm 29.88 1012 10 16.0934 0 0
5:15 am 05:15 Mostly Cloudy 69 20.8 64 18 84 84 N 5 7 29.88 1012 10 16.0934 0 0
5:35 am 05:35 Cloudy 69 20.8 64 18 84 84 NE 7 11 29.88 1012 10 16.0934 0 0
5:55 am 05:55 Cloudy 69 20.8 64 18 84 84 NE 5 7 29.88 1012 10 16.0934 0 0
6:15 am 06:15 Mostly Cloudy 69 20.8 64 18 84 84 NNE 3 6 29.88 1012 10 16.0934 0 0
6:35 am 06:35 Partly Cloudy 69 20.8 65 18.2 85 85 Calm 29.91 1013 10 16.0934 0 0
6:55 am 06:55 Clear 69 20.8 65 18.4 86 86 Calm 29.91 1013 10 16.0934 0 0
7:15 am 07:15 Partly Cloudy 67 19.5 63 17.1 86 86 N 5 7 29.91 1013 10 16.0934 0 0
7:35 am 07:35 Partly Cloudy 67 19.5 63 17.1 86 86 Calm 29.91 1013 10 16.0934 0 0
7:55 am 07:55 Sunny 67 19.5 63 17.1 86 86 Calm 29.91 1013 10 16.0934 0 0
8:15 am 08:15 Sunny 67 19.5 63 17 86 86 Calm 29.91 1013 10 16.0934 0 0
8:35 am 08:35 Sunny 69 20.8 65 18.3 86 86 Calm 29.91 1013 10 16.0934 0 0
8:55 am 08:55 Sunny 69 20.8 64 18 84 84 Calm 29.91 1013 10 16.0934 0 0
9:15 am 09:15 Sunny 69 20.8 62 16.9 78 78 Calm 29.91 1013 10 16.0934 0 0
9:35 am 09:35 Sunny 71 21.6 62 16.8 74 74 NNE 7 11 29.91 1013 10 16.0934 0 0
9:55 am 09:55 Sunny 71 21.9 61 16.2 70 70 NE 8 13 29.91 1013 10 16.0934 0 0
10:15 am 10:15 Sunny 72 22.3 61 16.1 68 68 Calm 29.91 1013 10 16.0934 0 0
10:35 am 10:35 Sunny 74 23.6 61 16 63 63 NNE 9 15 29.91 1013 10 16.0934 0 0
10:55 am 10:55 Sunny 74 23.6 58 14.6 57 57 NE 8 13 29.91 1013 10 16.0934 0 0
11:15 am 11:15 Sunny 77 24.9 58 14.5 53 53 ENE 6 9 29.91 1013 10 16.0934 0 0
11:35 am 11:35 Sunny 77 25.1 56 13.2 48 48 ENE 10 17 29.91 1013 10 16.0934 0 0
12:35 pm 12:35 Sunny 80 26.5 57 13.9 46 46 E 7 11 29.91 1013 10 16.0934 0 0
12:55 pm 12:55 Sunny 80 26.5 56 13.3 44 44 NE 8 13 29.85 1011 10 16.0934 0 0
1:15 pm 13:15 Sunny 80 26.6 56 13.3 44 44 ENE 6 9 29.85 1011 10 16.0934 0 0
1:35 pm 13:35 Sunny 80 26.9 57 13.7 44 44 E 9 15 29.85 1011 10 16.0934 0 0
1:55 pm 13:55 Sunny 80 26.7 55 12.9 42 42 Calm 29.85 1011 10 16.0934 0 0
2:15 pm 14:15 Sunny 81 27.2 56 13.6 43 43 N 7 11 29.85 1011 10 16.0934 0 0
2:35 pm 14:35 Sunny 81 27.2 56 13.1 42 42 NNE 5 7 29.85 1011 10 16.0934 0 0
2:55 pm 14:55 Sunny 82 27.7 54 12 38 38 N 3 6 29.85 1011 10 16.0934 0 0
3:15 pm 15:15 Sunny 82 28 55 12.6 39 39 N 6 9 29.83 1010 10 16.0934 0 0
3:35 pm 15:35 Sunny 82 28 54 12.4 38 38 NNE 5 7 29.83 1010 10 16.0934 0 0
3:55 pm 15:55 Sunny 82 28 54 12.4 38 38 Calm 29.83 1010 10 16.0934 0 0
4:15 pm 16:15 Sunny 82 28 54 12.2 38 38 NW 3 6 29.83 1010 10 16.0934 0 0
4:35 pm 16:35 Partly Cloudy 83 28.4 54 12.3 37 37 NNW 5 7 29.83 1010 10 16.0934 0 0
4:55 pm 16:55 Mostly Cloudy 83 28.5 52 11.3 34 34 NE 3 6 29.83 1010 10 16.0934 0 0
5:15 pm 17:15 Partly Cloudy 83 28.6 53 11.4 34 34 NE 5 7 29.83 1010 10 16.0934 0 0
5:35 pm 17:35 Sunny 83 28.4 52 10.9 34 34 Calm 29.83 1010 10 16.0934 0 0
5:55 pm 17:55 Sunny 83 28.4 53 11.5 35 35 NW 6 9 29.83 1010 10 16.0934 0 0
6:15 pm 18:15 Sunny 82 28 50 10.2 33 33 N 3 6 29.8 1009 10 16.0934 0 0
6:35 pm 18:35 Sunny 82 28 52 10.9 34 34 N 3 6 29.8 1009 10 16.0934 0 0
6:55 pm 18:55 Sunny 81 27.4 50 10.2 34 34 N 5 7 29.8 1009 10 16.0934 0 0
7:15 pm 19:15 Sunny 80 26.5 53 11.6 39 39 Calm 29.83 1010 10 16.0934 0 0
7:35 pm 19:35 Sunny 77 25.1 59 15.1 54 54 Calm 29.85 1011 10 16.0934 0 0
7:55 pm 19:55 Sunny 74 23.6 62 16.7 65 65 N 5 7 29.85 1011 10 16.0934 0 0
8:15 pm 20:15 Clear 72 22 62 16.6 72 72 N 3 6 29.85 1011 10 16.0934 0 0
8:35 pm 20:35 Clear 70 21.1 57 13.8 63 63 Calm 29.85 1011 10 16.0934 0 0
8:55 pm 20:55 Clear 69 20.8 60 15.5 72 72 NW 5 7 29.88 1012 10 16.0934 0 0
9:15 pm 21:15 Clear 72 22 55 12.8 56 56 NNW 5 7 29.88 1012 10 16.0934 0 0
9:35 pm 21:35 Clear 70 21 54 12.1 57 57 N 3 6 29.88 1012 10 16.0934 0 0
9:55 pm 21:55 Clear 71 21.9 55 13 57 57 Calm 29.88 1012 10 16.0934 0 0
10:15 pm 22:15 Clear 69 20.7 59 15.1 70 70 Calm 29.88 1012 10 16.0934 0 0
10:35 pm 22:35 Clear 67 19.5 58 14.7 74 74 N 3 6 29.88 1012 10 16.0934 0 0
10:55 pm 22:55 Clear 67 19.4 58 14.3 73 73 NNE 3 6 29.88 1012 10 16.0934 0 0
11:15 pm 23:15 Clear 64 18 57 13.8 77 77 NNE 3 6 29.88 1012 10 16.0934 0 0
11:35 pm 23:35 Clear 63 17 56 13.6 81 81 Calm 29.88 1012 10 16.0934 0 0
11:55 pm 23:55 Clear 62 16.9 56 13.4 80 80 Calm 29.88 1012 10 16.0934 0 0

Powered by AerisWeather